Location: Linz
(48.3300°N, 14.3000°E)
Time: 22:15:09
(UTC+01:00)

N. Korean satellite - Pass Details

Date: 19 November 2017
Orbit: 460 x 515 km, 97.2° (Epoch: 17 November)

Event Time Altitude Azimuth Distance (km) Brightness Sun altitude
Rises 05:53:25 0° 28° (NNE) 2,611 10.5 -13.6°
Reaches altitude 10° 05:56:08 10° 50° (NE) 1,730 9.8 -13.2°
Maximum altitude 05:58:34 17° 91° (E) 1,368 10.0 -12.8°
Drops below altitude 10° 06:01:01 10° 132° (SE) 1,733 10.4 -12.4°
Sets 06:03:44 0° 154° (SSE) 2,617 11.0 -11.9°
